CDT,Max TemperatureF,Mean TemperatureF,Min TemperatureF,Max Dew PointF,MeanDew PointF,Min DewpointF,Max Humidity, Mean Humidity, Min Humidity, Max Sea Level PressureIn, Mean Sea Level PressureIn, Min Sea Level PressureIn, Max VisibilityMiles, Mean VisibilityMiles, Min VisibilityMiles, Max Wind SpeedMPH, Mean Wind SpeedMPH, Max Gust SpeedMPH,PrecipitationIn, CloudCover, Events, WindDirDegrees
2013-4-1,28,19,10,9,6,3,73,56,40,30.19,30.15,30.06,10,10,10,20,13,28,0.00,0,,301
2013-4-2,32,22,12,10,6,0,85,53,30,30.32,30.25,30.18,10,10,10,17,9,24,0.00,0,,307
2013-4-3,39,24,10,28,12,0,70,53,38,30.33,30.17,29.93,10,10,10,24,8,37,0.00,2,,173
2013-4-4,37,30,23,30,20,10,87,63,38,30.19,30.05,29.92,10,9,5,23,10,29,0.00,2,,319
2013-4-5,35,24,14,25,13,9,86,57,38,30.24,30.14,29.95,10,9,2,16,6,22,0.00,3,,138
2013-4-6,33,30,28,30,28,25,93,87,80,29.94,29.72,29.62,10,7,0,16,8,20,0.01,8,,87
2013-4-7,35,32,30,28,27,25,87,78,65,29.89,29.83,29.73,10,10,5,13,8,17,0.00,8,,179
2013-4-8,37,34,32,32,30,21,93,84,60,30.10,29.89,29.80,10,7,2,16,5,,0.00,8,,8
2013-4-9,35,26,17,21,15,10,74,59,44,30.23,30.19,30.09,10,10,10,17,12,24,0.00,1,,352
2013-4-10,42,33,24,16,11,10,55,41,27,30.26,30.16,30.06,10,10,10,14,7,21,0.00,2,,48
2013-4-11,32,29,26,23,17,10,86,63,41,30.07,29.92,29.84,10,9,0,15,9,31,0.01,7,,78
2013-4-12,30,27,23,25,20,19,93,78,64,29.84,29.80,29.78,10,4,1,13,7,18,0.02,8,,22
2013-4-13,33,26,19,19,17,16,93,71,48,29.95,29.86,29.81,10,9,2,9,5,,0.00,7,,352
2013-4-14,39,26,14,27,20,9,93,75,42,29.96,29.81,29.56,10,7,0,20,5,31,0.08,3,,95
2013-4-15,37,34,30,30,28,27,93,84,70,29.85,29.57,29.44,10,7,1,14,9,22,0.01,8,,176
2013-4-16,37,34,30,30,23,19,93,66,48,30.35,30.13,29.85,10,10,10,18,8,23,0.00,8,,321
2013-4-17,35,32,28,27,26,21,93,75,60,30.36,30.25,30.08,10,8,1,12,4,17,0.01,8,,84
2013-4-18,30,29,28,27,26,25,93,89,80,30.06,29.81,29.61,10,3,0,24,11,31,0.02,8,,358
2013-4-19,33,27,21,27,15,1,93,63,30,29.95,29.71,29.57,10,6,1,31,20,40,0.00,5,,343
2013-4-20,37,22,6,9,5,0,85,46,26,30.26,30.16,29.96,10,10,10,13,2,,0.00,0,,202
2013-4-21,35,30,24,32,22,7,93,70,43,30.26,30.11,29.99,10,8,1,24,10,31,0.03,7,,157
2013-4-22,35,30,26,28,22,18,93,67,48,30.27,30.20,30.10,10,10,10,13,8,,0.00,6,,325
2013-4-23,37,30,24,19,15,12,69,52,36,30.19,30.10,30.01,10,10,10,14,9,21,0.00,2,,305
2013-4-24,37,29,21,28,20,12,87,65,45,30.00,29.91,29.86,10,9,1,10,3,16,0.00,4,,235
2013-4-25,42,34,26,27,23,18,93,64,36,30.13,30.05,29.93,10,10,7,13,7,17,0.00,5,,246
2013-4-26,60,48,35,34,29,19,70,52,29,30.12,30.03,29.94,10,10,10,12,7,,0.00,1,,188
2013-4-27,64,48,33,34,30,25,75,48,30,30.12,29.99,29.83,10,10,10,18,8,24,0.00,1,,176
2013-4-28,62,55,48,43,38,30,76,59,41,29.83,29.75,29.70,10,10,10,20,10,26,0.00,5,,206
2013-4-29,64,48,33,34,27,23,75,45,21,29.86,29.75,29.60,10,10,10,12,6,,0.00,0,,202
2013-4-30,62,52,44,48,41,36,93,75,42,29.60,29.47,29.33,10,9,5,18,10,29,0.02,5,Thunderstorm,143